星链-32742 (STARLINK-32742)

导读

STARLINK-32742是美国太空探索技术公司(SpaceX)于2025年1月13日发射的第二代星链(Starlink)卫星,属于星链全球卫星互联网星座的一员。它运行在近地轨道,配备高性能相控阵天线与激光星间链路,可提供高速低延迟互联网服务,支持全球偏远地区、海洋和空中的宽带接入,助力星座完成全球覆盖组网。

基本信息
目录编号:
62605
目录名称:
STARLINK-32742
国际标识:
2025-008U
轨道中心:
EARTH
卫星名称:
星链-32742
卫星全名:
星链-32742 (STARLINK-32742)
卫星状态:
在轨 (已飞行517 天)
发射日期:
2025-01-13 UTC
国别 :
美国 (US)
星等 :
--
轨道信息
数据来源 国际轨道数据
星历时间: 2026-06-13T20:28:36+0800
21小时前
查看轨道信息
半长轴: 6861.123km
偏心率: 0.0002153
轨道倾角: 43.004°
近地点辐角 265.800°
升交点赤经 96.439°
平近点角 94.261°
近地点: 481.508km
远地点: 484.464km
周期: 94.265分钟
每日圈数: 15.276011
详细信息
固有亮度:
5
最大亮度:
2.5
卫星平台:
Starlink V1.0
覆盖范围:
全球
运营商:
太空探索技术公司
运营商所在国:
美国
制造商(研发单位):
太空探索技术公司
制造商所在国:
美国
使用方式:
暂无
卫星简介
Starlink 计划是 SpaceX 推出的全球卫星互联网项目,通过发射低轨道卫星,为全球尤其是偏远地区提供高速、低延迟的互联网服务。自 2019 年起,Starlink 已部署数千颗卫星,旨在缩小全球数字鸿沟,推动互联网普及。该项目还为军事、航空等行业提供通信支持,带来广泛经济效益。
2D轨道图
3D轨道图
轨道高度分析图
轨道倾角分析图
轨道综合分析图
查看轨道综合分析图